period_start,C,m1,H,J0,J1,J2,J3,J4,J5,JA,JB,JC,JD,JJ,JK,JN,#
2015-12-27 00:03:36,0.14,10.89,0.00,14.48,18.99,22.89,15.12,54.31,1015.15,2063.06,1297.61,1371.70,1524.06,600.08,612.95,48.10,0000 0000 0000 0000 000000
2015-12-27 00:08:38,0.07,10.89,0.00,14.49,18.99,22.88,15.11,54.33,1015.15,2063.04,1296.97,1371.06,1523.83,600.13,612.89,48.15,0000 0000 0000 0000 000000
2015-12-27 00:13:39,0.12,10.90,0.00,14.50,19.01,22.90,15.02,54.25,1015.15,2063.00,1296.17,1370.91,1523.06,599.99,612.75,48.20,0000 0000 0000 0000 000000
2015-12-27 00:18:40,0.17,10.91,0.00,14.54,19.02,22.87,15.14,54.26,1015.15,2063.00,1295.51,1370.12,1522.61,599.86,612.49,48.26,0000 0000 0000 0000 000000
2015-12-27 00:23:41,0.05,10.91,0.00,14.54,19.04,22.95,15.12,54.39,1015.15,2063.00,1294.87,1369.93,1522.01,600.01,612.85,48.31,0000 0000 0000 0000 000000
2015-12-27 00:28:42,0.19,10.92,0.00,14.57,19.04,22.96,15.13,54.52,1015.04,2063.00,1294.05,1369.12,1521.36,600.14,612.76,48.36,0000 0000 0000 0000 000000
2015-12-27 00:33:43,0.08,10.93,0.00,14.56,19.07,22.95,15.09,54.62,1014.81,2063.00,1293.46,1369.00,1521.00,600.03,612.49,48.41,0000 0000 0000 0000 000000
2015-12-27 00:38:45,0.09,10.93,0.00,14.57,19.07,22.92,15.15,54.57,1014.65,2063.00,1292.91,1368.70,1520.55,600.15,612.47,48.46,0000 0000 0000 0000 000000
2015-12-27 00:43:46,0.13,10.94,0.00,14.59,19.09,22.98,15.12,54.50,1014.66,2063.00,1292.08,1368.03,1520.00,599.82,612.23,48.51,0000 0000 0000 0000 000000
2015-12-27 00:48:47,0.18,10.94,0.00,14.59,19.10,22.96,15.12,54.64,1014.69,2063.00,1291.30,1367.56,1519.38,599.89,612.26,48.56,0000 0000 0000 0000 000000
2015-12-27 00:53:49,0.11,10.95,0.00,14.59,19.12,22.97,15.16,54.58,1014.93,2062.99,1290.49,1367.02,1518.89,600.16,612.45,48.61,0000 0000 0000 0000 000000
2015-12-27 00:58:50,0.13,10.96,0.00,14.58,19.13,23.03,15.08,54.64,1015.14,2062.97,1289.83,1366.59,1518.09,600.08,612.65,48.66,0000 0000 0000 0000 000000
2015-12-27 01:03:51,0.11,10.97,0.00,14.58,19.14,23.04,15.06,54.71,1015.19,2062.98,1289.03,1366.02,1517.70,600.14,612.55,48.71,0000 0000 0000 0000 000000
2015-12-27 01:08:52,0.14,10.97,0.00,14.57,19.15,23.03,15.17,54.77,1015.36,2062.94,1288.18,1365.73,1517.03,600.02,612.82,48.76,0000 0000 0000 0000 000000
2015-12-27 01:13:54,0.16,10.98,0.00,14.59,19.17,23.03,15.22,54.65,1015.41,2062.94,1287.37,1365.03,1516.39,600.19,612.97,48.81,0000 0000 0000 0000 000000
2015-12-27 01:18:55,0.11,10.98,0.00,14.61,19.17,23.03,15.11,54.69,1015.27,2062.76,1286.50,1364.63,1515.86,600.05,612.66,48.86,0000 0000 0000 0000 000000
2015-12-27 01:23:56,0.13,10.99,0.00,14.61,19.19,23.03,15.22,54.91,1014.93,2062.68,1285.71,1364.01,1515.06,600.39,612.91,48.91,0000 0000 0000 0000 000000
2015-12-27 01:28:57,0.12,11.00,0.00,14.59,19.19,23.00,15.11,55.01,1015.16,2062.54,1284.93,1363.36,1514.49,599.54,612.10,48.96,0000 0000 0000 0000 000000
2015-12-27 01:33:59,0.07,11.01,0.00,14.60,19.21,22.99,15.12,54.92,1015.32,2062.34,1284.07,1362.93,1513.92,599.92,612.63,49.01,0000 0000 0000 0000 000000
2015-12-27 01:39:00,0.19,11.01,0.00,14.63,19.22,23.05,15.11,54.72,1015.59,2062.16,1283.24,1362.12,1513.09,600.18,612.92,49.06,0000 0000 0000 0000 000000
2015-12-27 01:44:02,0.09,11.02,0.00,14.61,19.22,23.05,15.11,54.84,1015.64,2062.24,1282.66,1361.99,1512.79,600.10,612.88,49.11,0000 0000 0000 0000 000000
2015-12-27 01:49:03,0.13,11.02,0.00,14.60,19.24,23.10,15.14,55.11,1015.64,2062.11,1281.87,1361.44,1512.04,600.28,613.13,49.17,0000 0000 0000 0000 000000
2015-12-27 01:54:04,0.12,11.03,0.00,14.61,19.24,23.01,15.17,55.48,1015.66,2062.12,1281.05,1361.00,1511.60,600.21,613.03,49.22,0000 0000 0000 0000 000000
2015-12-27 01:59:06,0.15,11.04,0.00,14.57,19.24,23.09,15.23,55.16,1015.85,2062.06,1280.32,1360.45,1511.00,599.94,612.84,49.27,0000 0000 0000 0000 000000
2015-12-27 02:04:07,0.09,11.04,0.00,14.56,19.26,23.08,15.15,54.98,1016.01,2062.02,1279.73,1360.01,1510.36,600.07,613.21,49.32,0000 0000 0000 0000 000000
2015-12-27 02:09:09,0.10,11.05,0.00,14.60,19.27,23.09,15.17,55.03,1015.88,2062.00,1279.03,1359.61,1509.96,599.89,612.81,49.37,0000 0000 0000 0000 000000
2015-12-27 02:14:10,0.15,11.05,0.00,14.64,19.27,23.09,15.09,55.06,1015.97,2062.00,1278.48,1359.01,1509.18,600.01,612.98,49.42,0000 0000 0000 0000 000000
2015-12-27 02:19:11,0.04,11.06,0.00,14.61,19.29,23.10,15.14,55.11,1016.07,2062.00,1277.93,1358.83,1508.94,600.12,613.29,49.47,0000 0000 0000 0000 000000
2015-12-27 02:24:13,0.19,11.07,0.00,14.60,19.29,23.10,15.11,54.94,1016.14,2062.00,1277.11,1358.07,1508.12,599.91,613.15,49.52,0000 0000 0000 0000 000000
2015-12-27 02:29:14,0.08,11.07,0.00,14.60,19.29,23.11,15.17,54.97,1016.45,2062.00,1276.46,1357.99,1507.87,599.83,613.15,49.57,0000 0000 0000 0000 000000
2015-12-27 02:34:15,0.13,11.08,0.00,14.62,19.29,23.06,15.17,54.68,1016.65,2062.00,1275.83,1357.50,1507.09,600.55,614.02,49.62,0000 0000 0000 0000 000000
2015-12-27 02:39:17,0.09,11.09,0.00,14.63,19.29,23.08,15.10,54.58,1017.01,2061.99,1275.03,1357.01,1506.88,600.01,613.68,49.67,0000 0000 0000 0000 000000
2015-12-27 02:44:19,0.14,11.09,0.00,14.66,19.29,23.11,15.12,54.52,1017.10,2061.99,1274.22,1356.83,1506.07,600.01,613.60,49.72,0000 0000 0000 0000 000000
2015-12-27 02:49:20,0.10,11.10,0.00,14.69,19.29,23.04,15.11,54.53,1017.11,2061.98,1273.79,1356.09,1505.84,599.68,613.14,49.77,0000 0000 0000 0000 000000
2015-12-27 02:54:21,0.10,11.10,0.00,14.72,19.31,23.07,15.13,54.57,1017.13,2061.99,1273.01,1355.96,1505.07,600.07,613.65,49.82,0000 0000 0000 0000 000000
2015-12-27 02:59:23,0.18,11.11,0.00,14.69,19.32,23.11,15.12,54.61,1017.12,2061.99,1272.18,1355.17,1504.70,600.03,613.48,49.87,0000 0000 0000 0000 000000
2015-12-27 03:04:24,0.09,11.12,0.00,14.73,19.32,23.06,15.08,54.48,1017.17,2061.98,1271.65,1354.98,1504.03,599.79,613.31,49.92,0000 0000 0000 0000 000000
2015-12-27 03:09:25,0.09,11.12,0.00,14.74,19.32,23.06,15.15,54.52,1017.46,2061.99,1271.00,1354.54,1503.91,600.01,613.68,49.97,0000 0000 0000 0000 000000
2015-12-27 03:14:27,0.14,11.13,0.00,14.74,19.32,23.12,15.09,54.53,1017.59,2061.99,1270.34,1354.03,1503.15,599.47,613.16,50.02,0000 0000 0000 0000 000000
2015-12-27 03:19:28,0.04,11.13,0.00,14.73,19.33,23.14,15.14,54.52,1017.60,2061.98,1269.89,1353.95,1502.88,600.07,613.88,50.08,0000 0000 0000 0000 000000
2015-12-27 03:24:29,0.18,11.14,0.00,14.75,19.34,23.10,15.12,54.55,1017.61,2061.98,1269.09,1353.24,1502.10,599.91,613.68,50.13,0000 0000 0000 0000 000000
2015-12-27 03:29:31,0.05,11.14,0.00,14.77,19.34,23.17,15.15,54.50,1017.61,2061.97,1268.71,1353.00,1501.96,600.07,613.68,50.18,0000 0000 0000 0000 000000
2015-12-27 03:34:32,0.19,11.15,0.00,14.79,19.34,23.24,15.07,54.45,1017.60,2061.98,1267.77,1352.54,1501.19,599.92,613.57,50.23,0000 0000 0000 0000 000000
2015-12-27 03:39:33,0.20,11.16,0.00,14.81,19.37,23.19,15.22,54.59,1017.59,2061.98,1266.52,1351.91,1500.37,600.44,614.01,50.28,0000 0000 0000 0000 000000
2015-12-27 03:44:35,0.09,11.17,0.00,14.82,19.37,23.21,15.14,54.44,1017.59,2061.98,1265.94,1351.13,1500.01,600.23,613.79,50.33,0000 0000 0000 0000 000000
2015-12-27 03:49:36,0.12,11.18,0.00,14.82,19.38,23.14,15.12,54.38,1017.76,2061.97,1265.13,1350.99,1499.50,599.77,613.38,50.38,0000 0000 0000 0000 000000
2015-12-27 03:54:37,0.15,11.18,0.00,14.83,19.39,23.19,15.15,54.36,1018.07,2061.98,1264.56,1350.42,1499.00,599.99,613.84,50.43,0000 0000 0000 0000 000000
2015-12-27 03:59:38,0.08,11.19,0.00,14.86,19.39,23.26,15.07,54.24,1018.15,2061.96,1263.91,1350.01,1498.48,600.00,613.86,50.48,0000 0000 0000 0000 000000
2015-12-27 04:04:40,0.11,11.19,0.00,14.84,19.42,23.20,15.16,54.09,1018.45,2061.96,1263.10,1349.81,1498.00,600.29,614.27,50.53,0000 0000 0000 0000 000000
2015-12-27 04:09:41,0.17,11.20,0.00,14.87,19.42,23.25,15.16,54.19,1018.50,2061.95,1262.43,1349.06,1497.60,600.01,614.00,50.58,0000 0000 0000 0000 000000
2015-12-27 04:14:42,0.03,11.20,0.00,14.88,19.43,23.30,15.14,54.17,1018.45,2061.94,1261.91,1348.99,1497.02,600.10,613.93,50.63,0000 0000 0000 0000 000000
2015-12-27 04:19:44,0.16,11.21,0.00,14.89,19.44,23.26,15.13,54.13,1018.48,2061.96,1261.08,1348.50,1496.87,599.84,613.64,50.68,0000 0000 0000 0000 000000
2015-12-27 04:24:45,0.08,11.22,0.00,14.91,19.45,23.26,15.19,54.18,1018.55,2061.94,1260.78,1348.02,1496.10,599.93,613.91,50.73,0000 0000 0000 0000 000000
2015-12-27 04:29:47,0.05,11.22,0.00,14.92,19.47,23.27,15.18,54.08,1018.56,2061.89,1260.04,1347.97,1495.98,600.23,614.22,50.78,0000 0000 0000 0000 000000
2015-12-27 04:34:48,0.10,11.22,0.00,14.98,19.48,23.30,15.17,53.98,1018.57,2061.53,1259.80,1347.34,1495.32,600.31,614.07,50.83,0000 0000 0000 0000 000000
2015-12-27 04:39:50,0.02,11.23,0.00,14.99,19.49,23.29,15.17,54.03,1018.57,2061.19,1259.06,1347.01,1495.00,600.29,613.99,50.88,0000 0000 0000 0000 000000
2015-12-27 04:44:50,0.03,11.23,0.00,15.02,19.51,23.37,15.10,54.15,1018.57,2061.08,1258.85,1346.97,1494.65,599.72,613.42,50.94,0000 0000 0000 0000 000000
2015-12-27 04:49:51,0.16,11.24,0.00,15.05,19.52,23.36,15.13,54.11,1018.54,2061.04,1258.07,1346.27,1494.03,600.32,613.89,50.99,0000 0000 0000 0000 000000
2015-12-27 04:54:53,0.07,11.24,0.00,15.05,19.54,23.41,15.14,54.26,1018.54,2061.02,1257.60,1346.01,1493.91,600.18,613.81,51.04,0000 0000 0000 0000 000000
2015-12-27 04:59:54,0.08,11.24,0.00,15.09,19.55,23.34,15.16,54.42,1018.24,2061.03,1257.01,1345.92,1493.16,600.16,613.60,51.09,0000 0000 0000 0000 000000
2015-12-27 05:04:55,0.14,11.25,0.00,15.09,19.57,23.39,15.15,54.42,1018.19,2061.05,1256.47,1345.21,1492.99,600.14,613.49,51.14,0000 0000 0000 0000 000000
2015-12-27 05:09:57,0.06,11.25,0.00,15.12,19.58,23.42,15.09,54.41,1018.39,2061.01,1256.00,1345.03,1492.45,600.17,613.65,51.19,0000 0000 0000 0000 000000
2015-12-27 05:14:58,0.09,11.26,0.00,15.16,19.59,23.38,15.07,54.40,1018.57,2061.00,1255.36,1344.91,1492.01,599.93,613.47,51.24,0000 0000 0000 0000 000000
2015-12-27 05:19:59,0.10,11.26,0.00,15.18,19.62,23.49,15.00,54.20,1018.60,2061.00,1254.92,1344.23,1491.88,599.70,613.14,51.29,0000 0000 0000 0000 000000
2015-12-27 05:25:00,0.12,11.27,0.00,15.19,19.63,23.54,15.17,54.38,1018.78,2061.00,1254.10,1343.99,1491.10,600.25,613.66,51.34,0000 0000 0000 0000 000000
2015-12-27 05:30:02,0.04,11.27,0.00,15.22,19.65,23.57,15.20,54.27,1018.92,2061.00,1253.86,1343.81,1490.98,599.96,613.48,51.39,0000 0000 0000 0000 000000
2015-12-27 05:35:03,0.17,11.28,0.00,15.24,19.67,23.53,15.14,54.30,1019.05,2060.99,1253.08,1343.09,1490.36,599.98,613.53,51.44,0000 0000 0000 0000 000000
2015-12-27 05:40:05,0.05,11.28,0.00,15.22,19.69,23.60,15.17,54.28,1019.06,2060.96,1252.67,1343.00,1490.00,600.07,613.61,51.49,0000 0000 0000 0000 000000
2015-12-27 05:45:06,0.10,11.29,0.00,15.27,19.70,23.63,15.10,54.22,1019.06,2060.93,1251.97,1342.81,1489.44,599.95,613.61,51.54,0000 0000 0000 0000 000000
2015-12-27 05:50:08,0.15,11.30,0.00,15.28,19.72,23.63,15.16,54.39,1019.06,2060.89,1251.12,1342.06,1488.99,599.83,613.22,51.59,0000 0000 0000 0000 000000
2015-12-27 05:55:09,0.09,11.30,0.00,15.29,19.74,23.61,15.21,54.35,1019.05,2060.69,1250.55,1341.93,1488.33,600.34,613.70,51.64,0000 0000 0000 0000 000000
2015-12-27 06:00:10,0.04,11.30,0.00,15.30,19.76,23.61,15.08,54.33,1019.06,2060.26,1249.90,1341.14,1488.00,599.68,613.11,51.69,0000 0000 0000 0000 000000
2015-12-27 06:05:12,0.11,11.31,0.00,15.33,19.77,23.67,15.19,54.27,1019.27,2060.16,1249.10,1340.99,1487.39,600.26,613.80,51.74,0000 0000 0000 0000 000000
2015-12-27 06:10:13,0.05,11.31,0.00,15.32,19.79,23.65,15.14,54.25,1019.53,2060.08,1248.90,1340.67,1486.99,600.03,613.66,51.79,0000 0000 0000 0000 000000
2015-12-27 06:15:14,0.15,11.32,0.00,15.35,19.81,23.73,15.11,54.38,1019.55,2060.06,1248.10,1340.04,1486.54,599.76,613.36,51.84,0000 0000 0000 0000 000000
2015-12-27 06:20:16,0.06,11.32,0.00,15.40,19.82,23.71,15.17,54.30,1019.55,2060.02,1247.74,1339.96,1486.01,599.90,613.46,51.90,0000 0000 0000 0000 000000
2015-12-27 06:25:17,0.20,11.33,0.00,15.39,19.84,23.70,15.10,54.08,1019.55,2060.01,1246.81,1339.25,1485.48,599.90,613.53,51.95,0000 0000 0000 0000 000000
2015-12-27 06:30:19,0.07,11.34,0.00,15.37,19.86,23.74,15.15,54.15,1019.60,2060.01,1246.03,1338.99,1485.01,600.20,613.77,52.00,0000 0000 0000 0000 000000
2015-12-27 06:35:20,0.20,11.34,0.00,15.39,19.88,23.75,15.19,54.25,1019.97,2060.00,1245.30,1338.30,1484.31,600.15,613.81,52.05,0000 0000 0000 0000 000000
2015-12-27 06:40:21,0.02,11.35,0.00,15.38,19.89,23.86,15.11,54.13,1020.02,2060.00,1244.96,1338.00,1484.00,600.19,613.89,52.10,0000 0000 0000 0000 000000
2015-12-27 06:45:22,0.18,11.35,0.00,15.42,19.91,23.84,15.16,54.33,1020.04,2060.00,1244.15,1337.64,1483.32,600.13,613.85,52.15,0000 0000 0000 0000 000000
2015-12-27 06:50:24,0.11,11.36,0.00,15.45,19.93,23.80,15.22,54.29,1020.13,2059.99,1243.57,1337.03,1482.98,600.14,613.79,52.20,0000 0000 0000 0000 000000
2015-12-27 06:55:25,0.07,11.37,0.00,15.45,19.94,23.81,15.26,54.34,1020.19,2059.97,1243.01,1336.92,1482.28,600.14,613.86,52.25,0000 0000 0000 0000 000000
2015-12-27 07:00:26,0.15,11.38,0.00,15.48,19.96,23.82,15.12,54.22,1020.13,2059.97,1242.32,1336.15,1481.99,600.15,613.78,52.30,0000 0000 0000 0000 000000
2015-12-27 07:05:28,0.07,11.38,0.00,15.51,19.98,23.84,15.11,54.13,1020.30,2059.96,1241.81,1335.99,1481.38,600.08,613.81,52.35,0000 0000 0000 0000 000000
2015-12-27 07:10:29,0.12,11.38,0.00,15.54,19.99,23.86,15.08,53.97,1020.52,2059.92,1241.03,1335.57,1480.99,600.00,613.75,52.40,0000 0000 0000 0000 000000
2015-12-27 07:15:31,0.12,11.39,0.00,15.56,20.01,23.89,15.18,54.03,1020.61,2059.73,1240.28,1335.02,1480.34,600.10,613.87,52.45,0000 0000 0000 0000 000000
2015-12-27 07:20:32,0.08,11.39,0.00,15.57,20.03,23.89,15.17,54.07,1020.95,2059.44,1239.56,1334.63,1479.98,600.27,614.35,52.50,0000 0000 0000 0000 000000
2015-12-27 07:25:33,0.06,11.40,0.00,15.56,20.04,23.90,15.20,54.23,1020.85,2059.14,1239.02,1334.04,1479.33,600.05,613.97,52.55,0000 0000 0000 0000 000000
2015-12-27 07:30:35,0.06,11.40,0.00,15.58,20.07,23.94,15.08,54.24,1020.55,2059.04,1238.55,1333.97,1478.99,599.95,613.67,52.60,0000 0000 0000 0000 000000
2015-12-27 07:35:36,0.14,11.41,0.00,15.61,20.08,23.94,15.18,54.17,1020.52,2059.02,1237.95,1333.22,1478.30,600.02,613.68,52.65,0000 0000 0000 0000 000000
2015-12-27 07:40:38,0.09,11.42,0.00,15.65,20.09,24.01,15.16,54.06,1020.58,2059.01,1237.14,1333.00,1478.00,599.95,613.52,52.70,0000 0000 0000 0000 000000
2015-12-27 07:45:39,0.17,11.42,0.00,15.66,20.12,23.98,15.13,54.20,1020.92,2059.00,1236.68,1332.51,1477.31,599.96,613.73,52.76,0000 0000 0000 0000 000000
2015-12-27 07:50:40,0.05,11.43,0.00,15.68,20.14,23.95,15.15,54.05,1021.01,2059.00,1236.01,1332.02,1477.00,600.19,614.00,52.81,0000 0000 0000 0000 000000
2015-12-27 07:55:41,0.15,11.43,0.00,15.68,20.16,24.06,15.13,53.92,1021.03,2059.00,1235.40,1331.81,1476.34,599.93,613.82,52.86,0000 0000 0000 0000 000000
2015-12-27 08:00:42,0.07,11.44,0.00,15.71,20.17,24.10,15.07,54.03,1021.06,2058.99,1234.93,1331.08,1475.99,599.88,613.62,52.91,0000 0000 0000 0000 000000
2015-12-27 08:05:43,0.13,11.45,0.00,15.74,20.19,24.11,15.19,54.17,1021.04,2058.99,1234.11,1330.95,1475.35,600.12,613.72,52.96,0000 0000 0000 0000 000000
2015-12-27 08:10:45,0.16,11.45,0.00,15.73,20.20,24.12,15.08,54.42,1021.01,2058.98,1233.53,1330.26,1474.99,599.88,613.59,53.01,0000 0000 0000 0000 000000
2015-12-27 08:15:46,0.07,11.46,0.00,15.76,20.22,24.12,15.17,54.21,1021.12,2058.96,1232.94,1329.99,1474.31,600.35,613.87,53.06,0000 0000 0000 0000 000000
2015-12-27 08:20:47,0.15,11.46,0.00,15.77,20.24,24.02,15.16,54.10,1021.48,2058.88,1232.11,1329.47,1473.96,600.06,613.88,53.11,0000 0000 0000 0000 000000
2015-12-27 08:25:49,0.07,11.47,0.00,15.82,20.26,24.13,15.10,54.08,1021.54,2058.59,1231.51,1329.01,1473.18,600.05,613.84,53.16,0000 0000 0000 0000 000000
2015-12-27 08:30:50,0.05,11.47,0.00,15.81,20.28,24.18,15.16,54.09,1021.92,2058.26,1230.89,1328.66,1472.94,600.15,614.22,53.21,0000 0000 0000 0000 000000
2015-12-27 08:35:51,0.14,11.48,0.00,15.82,20.29,24.14,15.07,53.95,1021.98,2058.10,1230.05,1328.02,1472.14,599.99,613.98,53.26,0000 0000 0000 0000 000000
2015-12-27 08:40:52,0.15,11.48,0.00,15.87,20.32,24.23,15.20,54.04,1022.02,2058.05,1229.16,1327.70,1471.77,600.08,614.09,53.31,0000 0000 0000 0000 000000
2015-12-27 08:45:54,0.14,11.49,0.00,15.91,20.34,24.23,15.11,54.12,1022.20,2058.04,1228.46,1327.03,1471.04,599.88,613.90,53.36,0000 0000 0000 0000 000000
2015-12-27 08:50:55,0.01,11.50,0.00,15.87,20.36,24.26,15.21,54.10,1022.34,2058.01,1228.00,1326.95,1470.97,600.46,614.58,53.41,0000 0000 0000 0000 000000
2015-12-27 08:55:56,0.20,11.50,0.00,15.91,20.38,24.23,15.10,54.02,1022.48,2058.01,1227.51,1326.29,1470.24,599.73,613.96,53.46,0000 0000 0000 0000 000000
2015-12-27 09:00:58,0.03,11.51,0.00,15.95,20.40,24.28,15.10,54.06,1022.49,2058.00,1226.95,1326.00,1469.98,600.04,614.15,53.51,0000 0000 0000 0000 000000
2015-12-27 09:05:59,0.17,11.51,0.00,15.99,20.43,24.26,15.13,54.03,1022.66,2058.00,1226.15,1325.73,1469.35,599.70,613.77,53.57,0000 0000 0000 0000 000000
2015-12-27 09:11:01,0.09,11.52,0.00,16.01,20.45,24.33,15.07,54.02,1022.71,2057.99,1225.74,1325.04,1469.00,599.87,614.03,53.62,0000 0000 0000 0000 000000
2015-12-27 09:16:02,0.10,11.53,0.00,16.08,20.47,24.34,15.15,54.00,1022.76,2057.98,1225.00,1324.94,1468.35,599.86,613.90,53.67,0000 0000 0000 0000 000000
2015-12-27 09:21:03,0.16,11.53,0.00,16.12,20.49,24.35,15.16,54.09,1022.96,2057.97,1224.24,1324.24,1467.99,600.02,614.09,53.72,0000 0000 0000 0000 000000
2015-12-27 09:26:04,0.05,11.54,0.00,16.13,20.52,24.42,15.12,54.00,1022.97,2057.92,1223.95,1324.00,1467.53,599.79,613.80,53.77,0000 0000 0000 0000 000000
2015-12-27 09:31:05,0.11,11.54,0.00,16.15,20.54,24.39,15.16,53.95,1022.98,2057.82,1223.19,1323.80,1467.01,600.16,614.23,53.82,0000 0000 0000 0000 000000
2015-12-27 09:36:06,-0.00,11.54,0.00,16.16,20.57,24.40,15.12,53.87,1023.02,2057.40,1222.98,1323.08,1466.85,600.17,614.18,53.87,0000 0000 0000 0000 000000
2015-12-27 09:41:08,0.09,11.55,0.00,16.22,20.59,24.46,15.15,53.77,1023.32,2057.07,1222.26,1322.99,1466.07,600.28,614.32,53.92,0000 0000 0000 0000 000000
2015-12-27 09:46:09,0.17,11.55,0.00,16.24,20.61,24.52,15.05,53.77,1023.44,2057.02,1221.43,1322.43,1465.85,599.88,613.92,53.97,0000 0000 0000 0000 000000
2015-12-27 09:51:10,0.06,11.56,0.00,16.25,20.64,24.52,15.13,53.86,1023.37,2057.01,1220.98,1322.01,1465.09,599.95,613.99,54.02,0000 0000 0000 0000 000000
2015-12-27 09:56:11,0.02,11.56,0.00,16.29,20.66,24.55,15.07,53.73,1023.46,2057.00,1220.81,1321.99,1464.99,600.00,613.97,54.07,0000 0000 0000 0000 000000
2015-12-27 10:01:13,0.18,11.57,0.00,16.33,20.69,24.55,15.13,53.79,1023.47,2056.99,1220.04,1321.36,1464.37,600.14,613.99,54.12,0000 0000 0000 0000 000000
2015-12-27 10:06:14,0.01,11.57,0.00,16.34,20.71,24.54,15.15,53.89,1023.47,2056.99,1219.99,1321.02,1464.01,600.04,613.90,54.17,0000 0000 0000 0000 000000
2015-12-27 10:11:16,0.07,11.57,0.00,16.35,20.73,24.58,15.20,53.87,1023.46,2056.96,1219.46,1320.99,1463.96,600.14,614.04,54.22,0000 0000 0000 0000 000000
2015-12-27 10:16:17,0.08,11.58,0.00,16.38,20.76,24.65,15.08,53.77,1023.45,2056.84,1219.00,1320.66,1463.24,599.86,613.59,54.27,0000 0000 0000 0000 000000
2015-12-27 10:21:18,0.09,11.58,0.00,16.40,20.78,24.66,15.15,53.77,1023.44,2056.57,1218.34,1320.04,1462.99,600.04,613.74,54.32,0000 0000 0000 0000 000000
2015-12-27 10:26:20,0.03,11.59,0.00,16.42,20.80,24.67,15.11,53.78,1023.37,2056.22,1217.79,1319.98,1462.36,599.75,613.33,54.37,0000 0000 0000 0000 000000
2015-12-27 10:31:21,0.10,11.59,0.00,16.47,20.82,24.69,15.14,53.71,1023.37,2056.08,1217.06,1319.50,1462.01,600.14,613.63,54.42,0000 0000 0000 0000 000000
2015-12-27 10:36:22,0.04,11.59,0.00,16.52,20.85,24.74,15.14,53.74,1023.28,2056.04,1216.96,1319.02,1461.80,600.25,613.61,54.47,0000 0000 0000 0000 000000
2015-12-27 10:41:24,0.11,11.60,0.00,16.54,20.87,24.76,15.08,53.76,1023.12,2056.00,1216.15,1318.98,1461.08,599.97,613.20,54.53,0000 0000 0000 0000 000000
2015-12-27 10:46:25,0.08,11.60,0.00,16.55,20.89,24.77,15.15,53.88,1023.07,2056.00,1215.97,1318.36,1460.96,600.15,613.26,54.58,0000 0000 0000 0000 000000
2015-12-27 10:51:26,0.13,11.61,0.00,16.60,20.91,24.82,15.04,54.00,1023.00,2055.99,1215.34,1318.02,1460.22,599.93,613.04,54.63,0000 0000 0000 0000 000000
2015-12-27 10:56:28,0.01,11.61,0.00,16.61,20.93,24.85,15.06,54.22,1022.95,2055.98,1214.99,1317.99,1460.00,599.81,612.70,54.68,0000 0000 0000 0000 000000
2015-12-27 11:01:29,0.18,11.62,0.00,16.64,20.94,24.82,15.19,54.39,1022.68,2055.92,1214.27,1317.49,1459.59,600.24,613.00,54.73,0000 0000 0000 0000 000000
2015-12-27 11:06:30,0.00,11.62,0.00,16.68,20.97,24.77,15.04,54.30,1022.50,2055.66,1213.90,1317.01,1459.01,599.67,612.30,54.78,0000 0000 0000 0000 000000
2015-12-27 11:11:32,0.04,11.62,0.00,16.68,20.99,24.87,15.07,54.17,1022.48,2055.21,1213.09,1316.98,1458.92,599.74,612.38,54.83,0000 0000 0000 0000 000000
2015-12-27 11:16:33,0.13,11.63,0.00,16.71,21.00,24.94,15.00,54.11,1022.48,2055.12,1212.75,1316.45,1458.19,599.54,611.91,54.88,0000 0000 0000 0000 000000
2015-12-27 11:21:35,0.07,11.63,0.00,16.72,21.02,24.96,15.06,54.13,1022.50,2055.01,1212.01,1316.02,1457.98,599.67,612.13,54.93,0000 0000 0000 0000 000000
2015-12-27 11:26:35,0.15,11.64,0.00,16.70,21.04,24.98,15.07,54.02,1022.89,2055.01,1211.15,1315.91,1457.30,599.88,612.65,54.98,0000 0000 0000 0000 000000
2015-12-27 11:31:37,0.13,11.64,0.00,16.70,21.06,24.98,15.06,54.01,1022.95,2055.00,1210.69,1315.19,1457.00,599.64,612.56,55.03,0000 0000 0000 0000 000000
2015-12-27 11:36:38,0.08,11.65,0.00,16.68,21.08,25.01,15.03,53.86,1022.96,2055.00,1210.01,1315.00,1456.55,599.70,612.59,55.08,0000 0000 0000 0000 000000
2015-12-27 11:41:39,0.12,11.66,0.00,16.67,21.10,24.96,15.04,53.81,1022.96,2055.00,1209.28,1314.84,1456.02,599.93,612.74,55.13,0000 0000 0000 0000 000000
2015-12-27 11:46:40,0.07,11.66,0.00,16.67,21.12,25.08,15.13,53.98,1022.96,2054.99,1208.97,1314.11,1455.96,600.17,612.96,55.18,0000 0000 0000 0000 000000
2015-12-27 11:51:41,0.13,11.67,0.00,16.68,21.14,25.05,15.10,53.83,1022.97,2054.99,1208.29,1314.00,1455.25,600.15,612.94,55.23,0000 0000 0000 0000 000000
2015-12-27 11:56:43,0.02,11.67,0.00,16.69,21.16,25.04,15.09,53.81,1022.97,2054.97,1207.96,1313.90,1454.99,599.82,612.73,55.28,0000 0000 0000 0000 000000
2015-12-27 12:01:44,0.19,11.68,0.00,16.67,21.18,25.07,15.19,53.81,1022.97,2054.97,1207.20,1313.17,1454.55,599.97,612.84,55.33,0000 0000 0000 0000 000000
2015-12-27 12:06:45,0.01,11.68,0.00,16.67,21.19,25.08,15.00,53.70,1022.97,2054.80,1206.84,1313.00,1454.02,599.87,612.73,55.39,0000 0000 0000 0000 000000
2015-12-27 12:11:46,0.06,11.68,0.00,16.67,21.21,25.14,15.17,53.77,1023.06,2054.56,1206.06,1312.92,1453.95,600.29,613.12,55.44,0000 0000 0000 0000 000000
2015-12-27 12:16:48,0.13,11.69,0.00,16.69,21.22,25.12,15.15,53.83,1023.35,2054.29,1205.62,1312.19,1453.18,600.33,613.45,55.49,0000 0000 0000 0000 000000
2015-12-27 12:21:49,0.03,11.69,0.00,16.70,21.24,25.11,15.17,54.01,1023.16,2054.25,1205.01,1312.01,1453.00,600.26,613.08,55.54,0000 0000 0000 0000 000000
2015-12-27 12:26:50,0.11,11.70,0.00,16.73,21.25,25.08,15.11,54.03,1022.96,2054.08,1204.36,1311.93,1452.55,600.17,612.91,55.59,0000 0000 0000 0000 000000
2015-12-27 12:31:51,0.09,11.70,0.00,16.73,21.27,25.11,15.03,53.89,1022.97,2054.04,1203.99,1311.27,1452.04,599.80,612.60,55.64,0000 0000 0000 0000 000000
2015-12-27 12:36:52,0.08,11.71,0.00,16.71,21.28,25.13,15.08,53.93,1022.98,2054.03,1203.36,1311.01,1451.97,599.92,612.69,55.69,0000 0000 0000 0000 000000
2015-12-27 12:41:54,0.08,11.71,0.00,16.72,21.29,25.15,15.03,53.90,1023.31,2054.00,1202.85,1310.94,1451.27,599.90,612.86,55.74,0000 0000 0000 0000 000000
2015-12-27 12:46:55,0.16,11.72,0.00,16.75,21.30,25.17,15.07,53.77,1023.41,2054.01,1202.06,1310.28,1451.00,599.76,612.75,55.79,0000 0000 0000 0000 000000
2015-12-27 12:51:57,0.10,11.72,0.00,16.74,21.32,25.19,15.09,53.89,1023.08,2054.00,1201.69,1310.01,1450.65,599.88,612.60,55.84,0000 0000 0000 0000 000000